Pagina principale
METAR-TAF:

METAR-TAF

Aeroporti :

Monte Malanotte

Prato Nevoso, Italia

latitudine: 44-15N, longitudine: 007-48E, altezza: 1741 m

Osservazione

Il bollettino è stato emesso 1 ora e 10 minuti fa, alle 15:55 UTC
Vento 3 kt da direzioni variabili
Temperature 20°C
Umidità 60%
Pressione 1015 hPa
Visibilità 10 km o più
Nubi sparse ad un'altezza di 3000 ft

METAR: LIMY 311555Z VRB03KT 9999 SCT030 20/12 Q1015 RMK BKN VAL FOSCHIA VIS MIN 9999

Ora: 19:05 (17:05 UTC)


TAF: mancante

Osservazioni e previsioni meteorologiche di più di 4000 aeroporti (messaggi METAR e TAF).

Le stazioni disponibili sono rappresentate dai dischi gialli e rossi sulla carta.

Puntare il mouse per vedere il nome della stazione.

Clicca sopra per visualizzare le osservazioni e previsioni meteorologiche.

Per cambiare la mappa : fare clic sui pulsanti verdi con una croce nera per ingrandire, il pulsante verde con un trattino per diminuire, o sulla freccia verde per le mappe adiacenti.


METAR-TAF: